Simultaneous Nadir Overpasses (SNOs) Predictions

Prediction of SNOs between LANDSAT-8 and METOP-B Satellite Orbit:

Table of predicted SNOs for the next 14.0 days since TLE Epoch: 1/8/2022
Index Date (LANDSAT-8) Time (LANDSAT-8) Lat,Lon (LANDSAT-8) SZA (LANDSAT-8 ) Date (METOP-B) Time (METOP-B) Lat,Lon (METOP-B) SZA (METOP-B ) Distance(km) Time Diff (sec)
1 01/08/2022 22:58:41 -81.14, 55.38 74.95 01/08/2022 22:57:59 -81.14, 55.39 74.96 0.24 42
2 01/08/2022 23:48:06 81.17,-136.51 105.12 01/08/2022 23:48:38 81.16,-136.53 105.13 0.58 32
3 01/11/2022 18:32:56 -81.14, 121.79 75.40 01/11/2022 18:32:20 -81.14, 121.76 75.41 0.42 36
4 01/11/2022 19:22:21 81.17, -70.12 104.66 01/11/2022 19:22:59 81.16, -70.19 104.67 1.28 38
5 01/14/2022 14:07:11 -81.13,-171.84 75.91 01/14/2022 14:06:41 -81.14,-171.88 75.92 0.76 30
6 01/14/2022 14:56:36 81.16, -3.78 104.15 01/14/2022 14:57:20 81.16, -3.88 104.16 1.76 44
7 01/17/2022 09:41:24 -81.15,-105.15 76.43 01/17/2022 09:41:00 -81.15,-105.17 76.44 0.43 24
8 01/17/2022 10:30:49 81.17, 62.89 103.63 01/17/2022 10:31:39 81.17, 62.79 103.63 1.93 50
9 01/20/2022 05:15:39 -81.14, -38.87 77.05 01/20/2022 05:15:21 -81.14, -38.86 77.05 0.51 18



Historial Predications of SNOs between LANDSAT-8 and METOP-B
